Time,TemperatureF,DewpointF,PressureIn,WindDirection,WindDirectionDegrees,WindSpeedMPH,WindSpeedGustMPH,Humidity,HourlyPrecipIn,Conditions,Clouds,dailyrainin,SolarRadiationWatts/m^2,SoftwareType,DateUTC
2013-06-25 00:01:00,70.6,64.8,30.06,West,265,0.0,2.0,82,0.00,,,0.33,0,Wunderground v.1.15,2013-06-25 04:01:00,
2013-06-25 00:02:00,70.6,64.8,30.06,West,265,0.0,2.0,82,0.00,,,0.33,0,Wunderground v.1.15,2013-06-25 04:02:00,
2013-06-25 00:03:00,70.5,65.1,30.06,West,265,0.0,2.0,83,0.00,,,0.33,0,Wunderground v.1.15,2013-06-25 04:03:00,
2013-06-25 00:06:00,70.5,65.1,30.06,West,265,1.0,2.0,83,0.00,,,0.33,0,Wunderground v.1.15,2013-06-25 04:06:00,
2013-06-25 00:12:00,70.4,64.6,30.06,West,265,0.0,1.0,82,0.00,,,0.33,0,Wunderground v.1.15,2013-06-25 04:12:00,
2013-06-25 00:16:00,70.4,65.0,30.05,West,265,0.0,1.0,83,0.00,,,0.33,0,Wunderground v.1.15,2013-06-25 04:16:00,
2013-06-25 00:22:00,70.2,65.1,30.05,West,265,1.0,1.0,84,0.00,,,0.33,0,Wunderground v.1.15,2013-06-25 04:22:00,
2013-06-25 00:28:00,70.1,65.0,30.05,West,265,1.0,1.0,84,0.00,,,0.33,0,Wunderground v.1.15,2013-06-25 04:28:00,
2013-06-25 00:34:00,70.0,64.9,30.05,West,273,0.0,1.0,84,0.00,,,0.33,0,Wunderground v.1.15,2013-06-25 04:34:00,
2013-06-25 00:39:00,69.8,64.7,30.05,West,273,0.0,1.0,84,0.00,,,0.33,0,Wunderground v.1.15,2013-06-25 04:39:00,
2013-06-25 00:45:00,69.6,64.5,30.05,West,273,0.0,1.0,84,0.00,,,0.33,0,Wunderground v.1.15,2013-06-25 04:45:00,
2013-06-25 00:51:00,69.5,64.5,30.05,West,273,0.0,1.0,84,0.00,,,0.33,0,Wunderground v.1.15,2013-06-25 04:51:00,
2013-06-25 00:56:00,69.5,64.5,30.05,West,273,0.0,1.0,84,0.00,,,0.33,0,Wunderground v.1.15,2013-06-25 04:56:00,
2013-06-25 01:02:00,69.5,64.5,30.05,West,273,0.0,0.0,84,0.00,,,0.00,0,Wunderground v.1.15,2013-06-25 05:02:00,
2013-06-25 01:07:00,69.6,64.9,30.05,South,191,0.0,0.0,85,0.00,,,0.00,0,Wunderground v.1.15,2013-06-25 05:07:00,
2013-06-25 01:13:00,69.4,65.0,30.04,South,191,0.0,0.0,86,0.00,,,0.00,0,Wunderground v.1.15,2013-06-25 05:13:00,
2013-06-25 01:18:00,69.3,64.9,30.04,South,191,0.0,0.0,86,0.00,,,0.00,0,Wunderground v.1.15,2013-06-25 05:18:00,
2013-06-25 01:24:00,69.3,64.9,30.04,South,191,0.0,0.0,86,0.00,,,0.00,0,Wunderground v.1.15,2013-06-25 05:24:00,
2013-06-25 01:29:00,69.3,64.9,30.04,South,191,0.0,0.0,86,0.00,,,0.00,0,Wunderground v.1.15,2013-06-25 05:29:00,
2013-06-25 01:35:00,69.2,64.8,30.04,South,191,0.0,0.0,86,0.00,,,0.00,0,Wunderground v.1.15,2013-06-25 05:35:00,
2013-06-25 01:41:00,69.0,64.6,30.04,South,191,0.0,0.0,86,0.00,,,0.00,0,Wunderground v.1.15,2013-06-25 05:41:00,
2013-06-25 01:46:00,68.9,64.9,30.04,South,191,0.0,0.0,87,0.00,,,0.00,0,Wunderground v.1.15,2013-06-25 05:46:00,
2013-06-25 01:52:00,68.7,65.0,30.04,South,191,0.0,0.0,88,0.00,,,0.00,0,Wunderground v.1.15,2013-06-25 05:52:00,
2013-06-25 01:58:00,68.6,64.9,30.04,South,191,0.0,2.0,88,0.00,,,0.00,0,Wunderground v.1.15,2013-06-25 05:58:00,
2013-06-25 02:03:00,68.4,65.0,30.04,South,191,1.0,2.0,89,0.00,,,0.00,0,Wunderground v.1.15,2013-06-25 06:03:00,
2013-06-25 02:09:00,68.3,64.9,30.04,South,191,0.0,2.0,89,0.00,,,0.00,0,Wunderground v.1.15,2013-06-25 06:09:00,
2013-06-25 02:14:00,68.3,64.9,30.04,South,191,0.0,2.0,89,0.00,,,0.00,0,Wunderground v.1.15,2013-06-25 06:14:00,
2013-06-25 02:20:00,68.2,65.2,30.04,South,191,0.0,2.0,90,0.00,,,0.00,0,Wunderground v.1.15,2013-06-25 06:20:00,
2013-06-25 02:26:00,68.2,65.2,30.04,South,191,0.0,2.0,90,0.00,,,0.00,0,Wunderground v.1.15,2013-06-25 06:26:00,
2013-06-25 02:31:00,68.2,65.2,30.04,South,191,0.0,2.0,90,0.00,,,0.00,0,Wunderground v.1.15,2013-06-25 06:31:00,
2013-06-25 02:37:00,68.1,65.1,30.04,South,191,0.0,2.0,90,0.00,,,0.00,0,Wunderground v.1.15,2013-06-25 06:37:00,
2013-06-25 02:43:00,68.0,65.0,30.04,South,191,0.0,2.0,90,0.00,,,0.00,0,Wunderground v.1.15,2013-06-25 06:43:00,
2013-06-25 02:48:00,67.9,64.9,30.04,South,191,0.0,2.0,90,0.00,,,0.00,0,Wunderground v.1.15,2013-06-25 06:48:00,
2013-06-25 02:54:00,67.8,64.8,30.04,South,191,0.0,2.0,90,0.00,,,0.00,0,Wunderground v.1.15,2013-06-25 06:54:00,
2013-06-25 03:00:00,67.7,64.7,30.03,South,191,0.0,0.0,90,0.00,,,0.00,0,Wunderground v.1.15,2013-06-25 07:00:00,
2013-06-25 03:06:00,67.7,65.0,30.03,South,191,0.0,0.0,91,0.00,,,0.00,0,Wunderground v.1.15,2013-06-25 07:06:00,
2013-06-25 03:11:00,67.6,64.6,30.03,South,191,0.0,0.0,90,0.00,,,0.00,0,Wunderground v.1.15,2013-06-25 07:11:00,
2013-06-25 03:17:00,67.5,64.8,30.03,South,191,0.0,0.0,91,0.00,,,0.00,0,Wunderground v.1.15,2013-06-25 07:17:00,
2013-06-25 03:23:00,67.4,64.7,30.03,South,191,0.0,0.0,91,0.00,,,0.00,0,Wunderground v.1.15,2013-06-25 07:23:00,
2013-06-25 03:28:00,67.4,64.7,30.02,South,191,0.0,0.0,91,0.00,,,0.00,0,Wunderground v.1.15,2013-06-25 07:28:00,
2013-06-25 03:34:00,67.3,64.6,30.02,South,191,0.0,1.0,91,0.00,,,0.00,0,Wunderground v.1.15,2013-06-25 07:34:00,
2013-06-25 03:40:00,67.2,64.5,30.02,South,191,0.0,0.0,91,0.00,,,0.00,0,Wunderground v.1.15,2013-06-25 07:40:00,
2013-06-25 03:46:00,67.1,64.7,30.02,South,191,0.0,1.0,92,0.00,,,0.00,0,Wunderground v.1.15,2013-06-25 07:46:00,
2013-06-25 03:52:00,67.0,64.6,30.02,South,191,0.0,2.0,92,0.00,,,0.00,0,Wunderground v.1.15,2013-06-25 07:52:00,
2013-06-25 03:58:00,66.9,64.5,30.02,SSW,196,2.0,4.0,92,0.00,,,0.00,0,Wunderground v.1.15,2013-06-25 07:58:00,
2013-06-25 04:04:00,66.7,64.3,30.02,SW,219,2.0,6.0,92,0.00,,,0.00,0,Wunderground v.1.15,2013-06-25 08:04:00,
2013-06-25 04:10:00,66.7,64.6,30.02,SSW,194,2.0,5.0,93,0.00,,,0.00,0,Wunderground v.1.15,2013-06-25 08:10:00,
2013-06-25 04:15:00,66.7,64.6,30.02,SW,229,1.0,5.0,93,0.00,,,0.00,0,Wunderground v.1.15,2013-06-25 08:15:00,
2013-06-25 04:21:00,66.7,64.3,30.02,SW,229,0.0,5.0,92,0.00,,,0.00,0,Wunderground v.1.15,2013-06-25 08:21:00,
2013-06-25 04:26:00,66.7,64.3,30.02,SW,229,0.0,5.0,92,0.00,,,0.00,0,Wunderground v.1.15,2013-06-25 08:26:00,
2013-06-25 04:32:00,66.7,64.3,30.02,SW,229,0.0,5.0,92,0.00,,,0.00,0,Wunderground v.1.15,2013-06-25 08:32:00,
2013-06-25 04:37:00,66.7,64.6,30.02,SW,229,0.0,5.0,93,0.00,,,0.00,0,Wunderground v.1.15,2013-06-25 08:37:00,
2013-06-25 04:43:00,66.7,64.3,30.02,SW,229,0.0,5.0,92,0.00,,,0.00,0,Wunderground v.1.15,2013-06-25 08:43:00,
2013-06-25 04:49:00,66.6,64.2,30.02,SW,229,0.0,5.0,92,0.00,,,0.00,0,Wunderground v.1.15,2013-06-25 08:49:00,
2013-06-25 04:55:00,66.4,64.0,30.02,SW,229,0.0,5.0,92,0.00,,,0.00,0,Wunderground v.1.15,2013-06-25 08:55:00,
2013-06-25 05:00:00,66.3,63.9,30.02,SW,229,0.0,0.0,92,0.00,,,0.00,0,Wunderground v.1.15,2013-06-25 09:00:00,
2013-06-25 05:06:00,66.2,63.8,30.02,SW,229,0.0,0.0,92,0.00,,,0.00,0,Wunderground v.1.15,2013-06-25 09:06:00,
2013-06-25 05:11:00,66.2,64.1,30.02,SW,229,0.0,0.0,93,0.00,,,0.00,0,Wunderground v.1.15,2013-06-25 09:11:00,
2013-06-25 05:17:00,66.2,64.1,30.02,SW,229,0.0,0.0,93,0.00,,,0.00,0,Wunderground v.1.15,2013-06-25 09:17:00,
2013-06-25 05:22:00,66.1,64.0,30.02,SW,229,0.0,0.0,93,0.00,,,0.00,0,Wunderground v.1.15,2013-06-25 09:22:00,
2013-06-25 05:28:00,66.0,64.2,30.02,SW,229,0.0,0.0,94,0.00,,,0.00,0,Wunderground v.1.15,2013-06-25 09:28:00,
2013-06-25 05:34:00,66.0,64.2,30.02,SW,229,0.0,0.0,94,0.00,,,0.00,0,Wunderground v.1.15,2013-06-25 09:34:00,
2013-06-25 05:40:00,65.9,64.1,30.02,SW,229,0.0,0.0,94,0.00,,,0.00,5,Wunderground v.1.15,2013-06-25 09:40:00,
2013-06-25 05:46:00,65.9,64.1,30.02,SW,229,0.0,0.0,94,0.00,,,0.00,9,Wunderground v.1.15,2013-06-25 09:46:00,
2013-06-25 05:51:00,65.9,64.1,30.02,SW,229,0.0,0.0,94,0.00,,,0.00,12,Wunderground v.1.15,2013-06-25 09:51:00,
2013-06-25 05:57:00,65.9,64.1,30.02,SW,229,0.0,0.0,94,0.00,,,0.00,16,Wunderground v.1.15,2013-06-25 09:57:00,
2013-06-25 06:03:00,65.9,64.4,30.02,SW,229,0.0,0.0,95,0.00,,,0.00,21,Wunderground v.1.15,2013-06-25 10:03:00,
2013-06-25 06:09:00,65.8,64.0,30.02,South,191,0.0,0.0,94,0.00,,,0.00,25,Wunderground v.1.15,2013-06-25 10:09:00,
2013-06-25 06:14:00,65.7,64.2,30.02,South,191,0.0,0.0,95,0.00,,,0.00,28,Wunderground v.1.15,2013-06-25 10:14:00,
2013-06-25 06:20:00,65.7,64.2,30.02,SSW,200,0.0,0.0,95,0.00,,,0.00,33,Wunderground v.1.15,2013-06-25 10:20:00,
2013-06-25 06:25:00,65.8,64.3,30.02,SSW,200,0.0,0.0,95,0.00,,,0.00,37,Wunderground v.1.15,2013-06-25 10:25:00,
2013-06-25 06:31:00,65.9,64.4,30.02,SSW,200,0.0,0.0,95,0.00,,,0.00,42,Wunderground v.1.15,2013-06-25 10:31:00,
2013-06-25 06:37:00,65.9,64.1,30.03,SSW,200,0.0,0.0,94,0.00,,,0.00,46,Wunderground v.1.15,2013-06-25 10:37:00,
2013-06-25 06:43:00,65.9,64.1,30.03,SSW,200,0.0,0.0,94,0.00,,,0.00,49,Wunderground v.1.15,2013-06-25 10:43:00,
2013-06-25 06:48:00,66.0,64.2,30.02,SSW,200,0.0,0.0,94,0.00,,,0.00,53,Wunderground v.1.15,2013-06-25 10:48:00,
2013-06-25 06:54:00,66.1,64.3,30.03,SSW,200,0.0,0.0,94,0.00,,,0.00,56,Wunderground v.1.15,2013-06-25 10:54:00,
2013-06-25 07:00:00,66.2,64.4,30.03,SSW,200,0.0,0.0,94,0.00,,,0.00,60,Wunderground v.1.15,2013-06-25 11:00:00,
2013-06-25 07:05:00,66.4,64.6,30.03,SSW,200,0.0,0.0,94,0.00,,,0.00,62,Wunderground v.1.15,2013-06-25 11:05:00,
2013-06-25 07:11:00,66.6,64.8,30.03,SSW,200,0.0,0.0,94,0.00,,,0.00,65,Wunderground v.1.15,2013-06-25 11:11:00,
2013-06-25 07:17:00,66.9,64.8,30.03,SE,145,0.0,0.0,93,0.00,,,0.00,72,Wunderground v.1.15,2013-06-25 11:17:00,
2013-06-25 07:22:00,67.1,65.0,30.02,South,170,0.0,0.0,93,0.00,,,0.00,72,Wunderground v.1.15,2013-06-25 11:22:00,
2013-06-25 07:28:00,67.4,65.0,30.02,South,170,0.0,0.0,92,0.00,,,0.00,90,Wunderground v.1.15,2013-06-25 11:28:00,
2013-06-25 07:34:00,67.7,65.3,30.02,South,170,0.0,1.0,92,0.00,,,0.00,176,Wunderground v.1.15,2013-06-25 11:34:00,
2013-06-25 07:40:00,68.1,66.0,30.02,South,170,0.0,0.0,93,0.00,,,0.00,127,Wunderground v.1.15,2013-06-25 11:40:00,
2013-06-25 07:46:00,68.7,66.3,30.02,South,170,0.0,1.0,92,0.00,,,0.00,104,Wunderground v.1.15,2013-06-25 11:46:00,
2013-06-25 07:52:00,69.5,66.8,30.02,SE,133,0.0,1.0,91,0.00,,,0.00,95,Wunderground v.1.15,2013-06-25 11:52:00,
2013-06-25 07:58:00,70.1,66.7,30.02,WNW,284,1.0,1.0,89,0.00,,,0.00,311,Wunderground v.1.15,2013-06-25 11:58:00,
2013-06-25 08:04:00,70.8,66.7,30.02,WNW,292,1.0,1.0,87,0.00,,,0.00,318,Wunderground v.1.15,2013-06-25 12:04:00,
2013-06-25 08:10:00,71.6,67.2,30.02,WNW,300,1.0,1.0,86,0.00,,,0.00,330,Wunderground v.1.15,2013-06-25 12:10:00,
2013-06-25 08:16:00,72.4,67.6,30.02,WNW,298,1.0,2.0,85,0.00,,,0.00,348,Wunderground v.1.15,2013-06-25 12:16:00,
2013-06-25 08:22:00,73.1,68.0,30.03,WNW,282,1.0,1.0,84,0.00,,,0.00,369,Wunderground v.1.15,2013-06-25 12:22:00,
2013-06-25 08:28:00,73.9,68.8,30.03,West,266,1.0,1.0,84,0.00,,,0.00,383,Wunderground v.1.15,2013-06-25 12:28:00,
2013-06-25 08:33:00,74.6,68.7,30.03,SE,134,1.0,4.0,82,0.00,,,0.00,399,Wunderground v.1.15,2013-06-25 12:33:00,
2013-06-25 08:39:00,74.9,68.3,30.03,SE,136,3.0,6.0,80,0.00,,,0.00,408,Wunderground v.1.15,2013-06-25 12:39:00,
2013-06-25 08:45:00,75.2,68.6,30.03,ESE,113,4.0,5.0,80,0.00,,,0.00,422,Wunderground v.1.15,2013-06-25 12:45:00,
2013-06-25 08:51:00,75.4,69.2,30.03,ENE,61,4.0,4.0,81,0.00,,,0.00,441,Wunderground v.1.15,2013-06-25 12:51:00,
2013-06-25 08:57:00,75.8,69.2,30.03,SSE,152,4.0,7.0,80,0.00,,,0.00,462,Wunderground v.1.15,2013-06-25 12:57:00,
2013-06-25 09:03:00,76.2,69.2,30.03,ESE,108,5.0,6.0,79,0.00,,,0.00,476,Wunderground v.1.15,2013-06-25 13:03:00,
2013-06-25 09:09:00,76.7,69.3,30.03,WNW,283,4.0,6.0,78,0.00,,,0.00,485,Wunderground v.1.15,2013-06-25 13:09:00,
2013-06-25 09:14:00,77.3,69.9,30.03,ENE,76,3.0,6.0,78,0.00,,,0.00,501,Wunderground v.1.15,2013-06-25 13:14:00,
2013-06-25 09:20:00,77.5,69.3,30.03,ESE,109,3.0,6.0,76,0.00,,,0.00,513,Wunderground v.1.15,2013-06-25 13:20:00,
2013-06-25 09:25:00,77.7,69.5,30.03,ESE,111,5.0,7.0,76,0.00,,,0.00,536,Wunderground v.1.15,2013-06-25 13:25:00,
2013-06-25 09:31:00,78.1,69.5,30.03,SE,128,4.0,6.0,75,0.00,,,0.00,552,Wunderground v.1.15,2013-06-25 13:31:00,
2013-06-25 09:36:00,78.7,70.1,30.03,WNW,296,3.0,6.0,75,0.00,,,0.00,564,Wunderground v.1.15,2013-06-25 13:36:00,
2013-06-25 09:38:00,78.8,69.8,30.02,North,10,3.0,6.0,74,0.00,,,0.00,571,Wunderground v.1.15,2013-06-25 13:38:00,
2013-06-25 09:44:00,79.4,70.0,30.02,SE,135,2.0,6.0,73,0.00,,,0.00,591,Wunderground v.1.15,2013-06-25 13:44:00,
2013-06-25 09:49:00,79.7,69.9,30.02,South,180,2.0,7.0,72,0.00,,,0.00,606,Wunderground v.1.15,2013-06-25 13:49:00,
2013-06-25 09:55:00,79.8,70.0,30.02,SSE,153,4.0,6.0,72,0.00,,,0.00,612,Wunderground v.1.15,2013-06-25 13:55:00,
2013-06-25 10:00:00,80.2,70.4,30.02,SE,130,3.0,3.0,72,0.00,,,0.00,626,Wunderground v.1.15,2013-06-25 14:00:00,
2013-06-25 10:06:00,80.4,70.1,30.01,SE,146,3.0,5.0,71,0.00,,,0.00,638,Wunderground v.1.15,2013-06-25 14:06:00,
2013-06-25 10:12:00,80.5,69.8,30.01,ESE,113,3.0,7.0,70,0.00,,,0.00,663,Wunderground v.1.15,2013-06-25 14:12:00,
2013-06-25 10:18:00,80.9,70.6,30.01,SE,142,3.0,7.0,71,0.00,,,0.00,668,Wunderground v.1.15,2013-06-25 14:18:00,
2013-06-25 10:23:00,80.9,70.6,30.01,WNW,300,3.0,6.0,71,0.00,,,0.00,693,Wunderground v.1.15,2013-06-25 14:23:00,
2013-06-25 10:29:00,81.1,70.8,30.01,WNW,300,3.0,6.0,71,0.00,,,0.00,686,Wunderground v.1.15,2013-06-25 14:29:00,
2013-06-25 10:34:00,81.5,70.8,30.01,SE,128,3.0,3.0,70,0.00,,,0.00,694,Wunderground v.1.15,2013-06-25 14:34:00,
2013-06-25 10:40:00,81.8,70.6,30.01,SE,130,3.0,9.0,69,0.00,,,0.00,721,Wunderground v.1.15,2013-06-25 14:40:00,
2013-06-25 10:46:00,82.1,70.5,30.01,NW,309,4.0,6.0,68,0.00,,,0.00,696,Wunderground v.1.15,2013-06-25 14:46:00,
2013-06-25 10:52:00,82.4,70.8,30.01,ESE,117,3.0,3.0,68,0.00,,,0.00,737,Wunderground v.1.15,2013-06-25 14:52:00,
2013-06-25 10:58:00,82.8,70.7,30.01,SSE,157,3.0,8.0,67,0.00,,,0.00,381,Wunderground v.1.15,2013-06-25 14:58:00,
2013-06-25 11:04:00,82.7,71.1,30.01,West,278,5.0,11.0,68,0.00,,,0.00,777,Wunderground v.1.15,2013-06-25 15:04:00,
2013-06-25 11:10:00,83.2,70.7,30.01,ESE,107,3.0,11.0,66,0.00,,,0.00,786,Wunderground v.1.15,2013-06-25 15:10:00,
2013-06-25 11:15:00,83.4,71.3,30.01,WNW,288,4.0,11.0,67,0.00,,,0.00,837,Wunderground v.1.15,2013-06-25 15:15:00,
2013-06-25 11:21:00,83.7,71.1,30.01,NE,37,3.0,11.0,66,0.00,,,0.00,840,Wunderground v.1.15,2013-06-25 15:21:00,
2013-06-25 11:27:00,83.9,71.8,30.00,SE,124,3.0,11.0,67,0.00,,,0.00,809,Wunderground v.1.15,2013-06-25 15:27:00,
2013-06-25 11:33:00,83.4,70.4,30.01,WNW,282,5.0,11.0,65,0.00,,,0.00,195,Wunderground v.1.15,2013-06-25 15:33:00,
2013-06-25 11:39:00,82.7,70.6,30.00,SW,215,6.0,11.0,67,0.00,,,0.00,102,Wunderground v.1.15,2013-06-25 15:39:00,
2013-06-25 11:44:00,82.4,71.2,30.00,NW,310,4.0,11.0,69,0.00,,,0.00,105,Wunderground v.1.15,2013-06-25 15:44:00,
2013-06-25 11:50:00,82.1,70.9,29.99,West,264,2.0,2.0,69,0.00,,,0.00,120,Wunderground v.1.15,2013-06-25 15:50:00,
2013-06-25 11:55:00,82.3,70.7,29.99,SSE,163,2.0,11.0,68,0.00,,,0.00,858,Wunderground v.1.15,2013-06-25 15:55:00,
2013-06-25 12:00:00,83.3,71.6,29.99,SW,228,2.0,5.0,68,0.00,,,0.00,935,Wunderground v.1.15,2013-06-25 16:00:00,
2013-06-25 12:06:00,84.0,70.5,29.99,WNW,295,2.0,5.0,64,0.00,,,0.00,401,Wunderground v.1.15,2013-06-25 16:06:00,
2013-06-25 12:11:00,84.3,71.7,29.98,NW,307,2.0,5.0,66,0.00,,,0.00,408,Wunderground v.1.15,2013-06-25 16:11:00,
2013-06-25 12:17:00,84.2,71.2,29.98,NW,310,2.0,5.0,65,0.00,,,0.00,297,Wunderground v.1.15,2013-06-25 16:17:00,
2013-06-25 12:23:00,84.0,69.6,29.98,ESE,113,4.0,11.0,62,0.00,,,0.00,257,Wunderground v.1.15,2013-06-25 16:23:00,
2013-06-25 12:28:00,84.3,70.8,29.98,WSW,257,4.0,11.0,64,0.00,,,0.00,260,Wunderground v.1.15,2013-06-25 16:28:00,
2013-06-25 12:34:00,84.8,70.8,29.98,WSW,251,3.0,5.0,63,0.00,,,0.00,262,Wunderground v.1.15,2013-06-25 16:34:00,
2013-06-25 12:40:00,85.7,69.2,29.97,SSW,200,3.0,5.0,58,0.00,,,0.00,1046,Wunderground v.1.15,2013-06-25 16:40:00,
2013-06-25 12:46:00,86.0,68.0,29.97,NW,312,4.0,5.0,55,0.00,,,0.00,411,Wunderground v.1.15,2013-06-25 16:46:00,
2013-06-25 12:51:00,85.7,67.7,29.97,WNW,286,4.0,5.0,55,0.00,,,0.00,197,Wunderground v.1.15,2013-06-25 16:51:00,
2013-06-25 12:57:00,85.4,67.4,29.97,NW,314,3.0,8.0,55,0.00,,,0.00,332,Wunderground v.1.15,2013-06-25 16:57:00,
2013-06-25 13:03:00,85.8,68.3,29.97,West,280,3.0,6.0,56,0.00,,,0.00,867,Wunderground v.1.15,2013-06-25 17:03:00,
2013-06-25 13:09:00,86.0,69.0,29.96,ENE,77,4.0,8.0,57,0.00,,,0.00,450,Wunderground v.1.15,2013-06-25 17:09:00,
2013-06-25 13:14:00,86.1,69.6,29.96,WNW,293,4.0,5.0,58,0.00,,,0.00,329,Wunderground v.1.15,2013-06-25 17:14:00,
2013-06-25 13:20:00,86.3,67.2,29.96,NW,315,4.0,5.0,53,0.00,,,0.00,496,Wunderground v.1.15,2013-06-25 17:20:00,
2013-06-25 13:26:00,86.0,68.0,29.97,NW,306,6.0,6.0,55,0.00,,,0.00,290,Wunderground v.1.15,2013-06-25 17:26:00,
2013-06-25 13:32:00,86.3,67.7,29.96,WNW,298,5.0,6.0,54,0.00,,,0.00,1137,Wunderground v.1.15,2013-06-25 17:32:00,
2013-06-25 13:37:00,86.9,67.7,29.96,North,5,5.0,6.0,53,0.00,,,0.00,499,Wunderground v.1.15,2013-06-25 17:37:00,
2013-06-25 13:43:00,87.0,68.3,29.96,West,276,4.0,5.0,54,0.00,,,0.00,455,Wunderground v.1.15,2013-06-25 17:43:00,
2013-06-25 13:49:00,86.5,67.3,29.96,NW,318,5.0,8.0,53,0.00,,,0.00,439,Wunderground v.1.15,2013-06-25 17:49:00,
2013-06-25 13:55:00,86.6,66.9,29.95,NW,317,6.0,7.0,52,0.00,,,0.00,856,Wunderground v.1.15,2013-06-25 17:55:00,
2013-06-25 14:00:00,86.6,67.4,29.95,West,279,5.0,6.0,53,0.00,,,0.00,422,Wunderground v.1.15,2013-06-25 18:00:00,
2013-06-25 14:06:00,86.2,66.5,29.95,West,275,5.0,8.0,52,0.00,,,0.00,341,Wunderground v.1.15,2013-06-25 18:06:00,
2013-06-25 14:12:00,86.0,66.9,29.95,WNW,293,4.0,8.0,53,0.00,,,0.00,304,Wunderground v.1.15,2013-06-25 18:12:00,
2013-06-25 14:18:00,85.9,67.3,29.95,WSW,242,3.0,8.0,54,0.00,,,0.00,320,Wunderground v.1.15,2013-06-25 18:18:00,
2013-06-25 14:24:00,85.5,67.0,29.95,WSW,256,4.0,8.0,54,0.00,,,0.00,316,Wunderground v.1.15,2013-06-25 18:24:00,
2013-06-25 14:30:00,84.7,66.7,29.96,SW,221,5.0,6.0,55,0.00,,,0.00,295,Wunderground v.1.15,2013-06-25 18:30:00,
2013-06-25 14:36:00,84.1,66.7,29.96,NW,315,6.0,8.0,56,0.00,,,0.00,236,Wunderground v.1.15,2013-06-25 18:36:00,
2013-06-25 14:41:00,83.6,67.3,29.96,SE,136,5.0,6.0,58,0.00,,,0.00,237,Wunderground v.1.15,2013-06-25 18:41:00,
2013-06-25 14:47:00,82.8,67.0,29.96,SE,140,5.0,9.0,59,0.00,,,0.00,236,Wunderground v.1.15,2013-06-25 18:47:00,
2013-06-25 14:53:00,82.0,67.2,29.97,ENE,77,5.0,6.0,61,0.00,,,0.00,323,Wunderground v.1.15,2013-06-25 18:53:00,
2013-06-25 14:59:00,81.6,67.3,29.97,West,281,4.0,6.0,62,0.00,,,0.00,341,Wunderground v.1.15,2013-06-25 18:59:00,
2013-06-25 15:05:00,80.5,67.2,29.97,ESE,120,5.0,11.0,64,0.00,,,0.00,316,Wunderground v.1.15,2013-06-25 19:05:00,
2013-06-25 15:11:00,80.0,67.6,29.97,South,178,5.0,9.0,66,0.00,,,0.00,250,Wunderground v.1.15,2013-06-25 19:11:00,
2013-06-25 15:16:00,79.3,67.8,29.97,West,260,4.0,9.0,68,0.00,,,0.00,172,Wunderground v.1.15,2013-06-25 19:16:00,
2013-06-25 15:22:00,78.7,67.7,29.97,West,261,4.0,9.0,69,0.00,,,0.00,139,Wunderground v.1.15,2013-06-25 19:22:00,
2013-06-25 15:28:00,78.1,67.5,29.97,SSW,211,3.0,9.0,70,0.00,,,0.00,120,Wunderground v.1.15,2013-06-25 19:28:00,
2013-06-25 15:34:00,77.8,67.6,29.96,NW,317,3.0,9.0,71,0.00,,,0.00,135,Wunderground v.1.15,2013-06-25 19:34:00,
2013-06-25 15:40:00,77.7,67.5,29.96,NW,311,3.0,9.0,71,0.00,,,0.00,137,Wunderground v.1.15,2013-06-25 19:40:00,
2013-06-25 15:45:00,77.8,67.2,29.96,NW,320,3.0,9.0,70,0.00,,,0.00,144,Wunderground v.1.15,2013-06-25 19:45:00,
2013-06-25 15:51:00,77.7,67.5,29.96,NW,312,4.0,9.0,71,0.00,,,0.00,165,Wunderground v.1.15,2013-06-25 19:51:00,
2013-06-25 15:56:00,77.8,67.2,29.96,SE,128,4.0,9.0,70,0.00,,,0.00,213,Wunderground v.1.15,2013-06-25 19:56:00,
2013-06-25 16:02:00,78.0,67.4,29.96,WNW,284,4.0,7.0,70,0.00,,,0.00,265,Wunderground v.1.15,2013-06-25 20:02:00,
2013-06-25 16:08:00,78.3,68.1,29.95,North,360,4.0,7.0,71,0.00,,,0.00,422,Wunderground v.1.15,2013-06-25 20:08:00,
2013-06-25 16:13:00,78.9,68.7,29.95,NW,314,3.0,7.0,71,0.00,,,0.00,469,Wunderground v.1.15,2013-06-25 20:13:00,
2013-06-25 16:19:00,79.8,68.7,29.95,NW,312,3.0,7.0,69,0.00,,,0.00,520,Wunderground v.1.15,2013-06-25 20:19:00,
2013-06-25 16:24:00,80.5,69.0,29.95,SE,135,3.0,7.0,68,0.00,,,0.00,473,Wunderground v.1.15,2013-06-25 20:24:00,
2013-06-25 16:30:00,80.9,69.3,29.95,ESE,114,3.0,3.0,68,0.00,,,0.00,510,Wunderground v.1.15,2013-06-25 20:30:00,
2013-06-25 16:36:00,81.0,69.0,29.94,South,190,4.0,7.0,67,0.00,,,0.00,292,Wunderground v.1.15,2013-06-25 20:36:00,
2013-06-25 16:42:00,80.8,69.2,29.94,SE,144,4.0,7.0,68,0.00,,,0.00,265,Wunderground v.1.15,2013-06-25 20:42:00,
2013-06-25 16:47:00,80.9,69.3,29.93,SE,134,3.0,7.0,68,0.00,,,0.00,265,Wunderground v.1.15,2013-06-25 20:47:00,
2013-06-25 16:53:00,80.9,69.3,29.93,NNW,327,3.0,7.0,68,0.00,,,0.00,269,Wunderground v.1.15,2013-06-25 20:53:00,
2013-06-25 16:58:00,80.7,69.6,29.93,SE,132,2.0,7.0,69,0.00,,,0.00,353,Wunderground v.1.15,2013-06-25 20:58:00,
2013-06-25 17:04:00,81.1,70.0,29.92,WSW,250,3.0,7.0,69,0.00,,,0.00,679,Wunderground v.1.15,2013-06-25 21:04:00,
2013-06-25 17:10:00,82.0,70.4,29.92,ESE,123,3.0,7.0,68,0.00,,,0.00,666,Wunderground v.1.15,2013-06-25 21:10:00,
2013-06-25 17:15:00,82.2,70.1,29.92,WNW,296,3.0,7.0,67,0.00,,,0.00,606,Wunderground v.1.15,2013-06-25 21:15:00,
2013-06-25 17:21:00,82.9,70.4,29.91,WNW,290,3.0,7.0,66,0.00,,,0.00,534,Wunderground v.1.15,2013-06-25 21:21:00,
2013-06-25 17:27:00,83.4,70.4,29.91,SE,128,3.0,7.0,65,0.00,,,0.00,482,Wunderground v.1.15,2013-06-25 21:27:00,
2013-06-25 17:33:00,83.8,70.3,29.91,NW,313,4.0,7.0,64,0.00,,,0.00,450,Wunderground v.1.15,2013-06-25 21:33:00,
2013-06-25 17:39:00,84.3,70.8,29.91,NNW,334,2.0,7.0,64,0.00,,,0.00,422,Wunderground v.1.15,2013-06-25 21:39:00,
2013-06-25 17:45:00,84.7,70.7,29.90,West,279,2.0,7.0,63,0.00,,,0.00,401,Wunderground v.1.15,2013-06-25 21:45:00,
2013-06-25 17:50:00,84.6,70.6,29.90,WSW,248,3.0,7.0,63,0.00,,,0.00,388,Wunderground v.1.15,2013-06-25 21:50:00,
2013-06-25 17:56:00,84.4,70.4,29.90,ESE,113,4.0,8.0,63,0.00,,,0.00,364,Wunderground v.1.15,2013-06-25 21:56:00,
2013-06-25 18:02:00,83.4,69.9,29.89,NNE,26,5.0,8.0,64,0.00,,,0.00,332,Wunderground v.1.15,2013-06-25 22:02:00,
2013-06-25 18:07:00,83.2,70.2,29.89,ESE,105,6.0,9.0,65,0.00,,,0.00,327,Wunderground v.1.15,2013-06-25 22:07:00,
2013-06-25 18:13:00,83.0,70.5,29.89,SE,142,7.0,8.0,66,0.00,,,0.00,315,Wunderground v.1.15,2013-06-25 22:13:00,
2013-06-25 18:19:00,83.2,71.1,29.88,SE,139,5.0,8.0,67,0.00,,,0.00,304,Wunderground v.1.15,2013-06-25 22:19:00,
2013-06-25 18:25:00,83.8,70.8,29.88,SE,136,3.0,8.0,65,0.00,,,0.00,287,Wunderground v.1.15,2013-06-25 22:25:00,
2013-06-25 18:30:00,84.0,70.0,29.88,SE,140,3.0,8.0,63,0.00,,,0.00,264,Wunderground v.1.15,2013-06-25 22:30:00,
2013-06-25 18:36:00,83.7,70.2,29.88,ESE,121,4.0,8.0,64,0.00,,,0.00,244,Wunderground v.1.15,2013-06-25 22:36:00,
2013-06-25 18:42:00,83.4,70.8,29.89,WNW,294,4.0,8.0,66,0.00,,,0.00,227,Wunderground v.1.15,2013-06-25 22:42:00,
2013-06-25 18:48:00,83.4,70.8,29.88,ESE,123,4.0,8.0,66,0.00,,,0.00,204,Wunderground v.1.15,2013-06-25 22:48:00,
2013-06-25 18:54:00,83.2,71.1,29.88,SE,143,4.0,8.0,67,0.00,,,0.00,179,Wunderground v.1.15,2013-06-25 22:54:00,
2013-06-25 19:00:00,83.1,70.6,29.89,SSW,206,4.0,4.0,66,0.00,,,0.00,156,Wunderground v.1.15,2013-06-25 23:00:00,
2013-06-25 19:06:00,83.0,70.5,29.88,ESE,119,4.0,6.0,66,0.00,,,0.00,144,Wunderground v.1.15,2013-06-25 23:06:00,
2013-06-25 19:11:00,82.8,70.7,29.88,West,267,4.0,6.0,67,0.00,,,0.00,120,Wunderground v.1.15,2013-06-25 23:11:00,
2013-06-25 19:17:00,82.7,70.6,29.89,ESE,120,3.0,6.0,67,0.00,,,0.00,49,Wunderground v.1.15,2013-06-25 23:17:00,
2013-06-25 19:23:00,82.2,70.6,29.90,ESE,118,4.0,6.0,68,0.00,,,0.00,33,Wunderground v.1.15,2013-06-25 23:23:00,
2013-06-25 19:28:00,81.8,70.6,29.90,SE,125,5.0,8.0,69,0.00,,,0.00,40,Wunderground v.1.15,2013-06-25 23:28:00,
2013-06-25 19:34:00,81.6,70.9,29.90,ESE,117,5.0,6.0,70,0.00,,,0.00,47,Wunderground v.1.15,2013-06-25 23:34:00,
2013-06-25 19:39:00,81.4,70.7,29.90,SE,130,5.0,9.0,70,0.00,,,0.00,23,Wunderground v.1.15,2013-06-25 23:39:00,
2013-06-25 19:44:00,81.2,70.5,29.90,SE,136,5.0,6.0,70,0.00,,,0.00,7,Wunderground v.1.15,2013-06-25 23:44:00,
2013-06-25 19:50:00,81.2,70.5,29.90,WNW,290,3.0,3.0,70,0.00,,,0.00,5,Wunderground v.1.15,2013-06-25 23:50:00,
2013-06-25 19:55:00,81.0,70.7,29.89,ESE,123,2.0,6.0,71,0.00,,,0.00,0,Wunderground v.1.15,2013-06-25 23:55:00,
2013-06-25 20:00:00,81.0,70.7,29.89,SE,134,2.0,6.0,71,0.00,,,0.00,0,Wunderground v.1.15,2013-06-26 00:00:00,
2013-06-25 20:06:00,80.7,71.6,29.89,SE,145,2.0,6.0,74,0.00,,,0.00,0,Wunderground v.1.15,2013-06-26 00:06:00,
2013-06-25 20:12:00,80.2,71.2,29.89,SE,142,2.0,6.0,74,0.00,,,0.00,0,Wunderground v.1.15,2013-06-26 00:12:00,
2013-06-25 20:18:00,80.0,71.0,29.89,WNW,284,1.0,6.0,74,0.00,,,0.00,0,Wunderground v.1.15,2013-06-26 00:18:00,
2013-06-25 20:24:00,79.9,70.9,29.91,SE,146,1.0,6.0,74,0.00,,,0.00,0,Wunderground v.1.15,2013-06-26 00:24:00,
2013-06-25 20:29:00,79.0,70.4,29.92,ESE,119,4.0,8.0,75,0.00,,,0.00,0,Wunderground v.1.15,2013-06-26 00:29:00,
2013-06-25 20:35:00,76.9,70.3,29.90,WNW,292,5.0,9.0,80,0.56,,,0.04,0,Wunderground v.1.15,2013-06-26 00:35:00,
2013-06-25 20:40:00,75.9,70.0,29.90,SSE,160,2.0,6.0,82,0.15,,,0.05,0,Wunderground v.1.15,2013-06-26 00:40:00,
2013-06-25 20:46:00,75.0,69.8,29.90,SSE,157,1.0,6.0,84,0.06,,,0.05,0,Wunderground v.1.15,2013-06-26 00:46:00,
2013-06-25 20:52:00,73.9,69.1,29.90,SSW,193,2.0,6.0,85,0.04,,,0.05,0,Wunderground v.1.15,2013-06-26 00:52:00,
2013-06-25 20:58:00,73.4,68.6,29.89,South,182,3.0,6.0,85,0.00,,,0.05,0,Wunderground v.1.15,2013-06-26 00:58:00,
2013-06-25 21:04:00,73.3,69.5,29.90,SW,223,1.0,3.0,88,0.00,,,0.05,0,Wunderground v.1.15,2013-06-26 01:04:00,
2013-06-25 21:10:00,73.3,69.9,29.90,WSW,257,0.0,2.0,89,0.00,,,0.05,0,Wunderground v.1.15,2013-06-26 01:10:00,
2013-06-25 21:16:00,73.2,69.8,29.93,WNW,303,3.0,10.0,89,0.00,,,0.05,0,Wunderground v.1.15,2013-06-26 01:16:00,
2013-06-25 21:21:00,73.0,69.6,29.93,WNW,292,6.0,9.0,89,0.54,,,0.08,0,Wunderground v.1.15,2013-06-26 01:21:00,
2013-06-25 21:27:00,72.5,69.4,29.94,WNW,290,5.0,9.0,90,0.59,,,0.14,0,Wunderground v.1.15,2013-06-26 01:27:00,
2013-06-25 21:32:00,71.9,68.8,29.94,SW,234,4.0,5.0,90,0.30,,,0.17,0,Wunderground v.1.15,2013-06-26 01:32:00,
2013-06-25 21:38:00,71.3,67.9,29.93,SSE,163,5.0,10.0,89,0.13,,,0.18,0,Wunderground v.1.15,2013-06-26 01:38:00,
2013-06-25 21:43:00,70.8,67.7,29.93,East,97,5.0,5.0,90,0.06,,,0.18,0,Wunderground v.1.15,2013-06-26 01:43:00,
2013-06-25 21:49:00,70.3,67.2,29.93,NW,312,3.0,5.0,90,0.04,,,0.18,0,Wunderground v.1.15,2013-06-26 01:49:00,
2013-06-25 21:55:00,69.9,66.8,29.94,SW,236,3.0,4.0,90,0.00,,,0.18,0,Wunderground v.1.15,2013-06-26 01:55:00,
2013-06-25 22:00:00,69.7,66.6,29.95,NNW,334,3.0,6.0,90,0.00,,,0.18,0,Wunderground v.1.15,2013-06-26 02:00:00,
2013-06-25 22:06:00,69.5,66.4,29.95,SE,126,2.0,6.0,90,0.00,,,0.18,0,Wunderground v.1.15,2013-06-26 02:06:00,
2013-06-25 22:12:00,69.3,66.2,29.94,SE,125,3.0,6.0,90,0.00,,,0.18,0,Wunderground v.1.15,2013-06-26 02:12:00,
2013-06-25 22:18:00,69.0,66.6,29.94,ESE,111,4.0,6.0,92,0.00,,,0.18,0,Wunderground v.1.15,2013-06-26 02:18:00,
2013-06-25 22:24:00,68.8,66.4,29.93,SSE,149,3.0,6.0,92,0.00,,,0.19,0,Wunderground v.1.15,2013-06-26 02:24:00,
2013-06-25 22:30:00,68.7,66.3,29.93,West,273,2.0,2.0,92,0.00,,,0.19,0,Wunderground v.1.15,2013-06-26 02:30:00,
2013-06-25 22:35:00,68.5,66.1,29.93,South,184,2.0,6.0,92,0.00,,,0.19,0,Wunderground v.1.15,2013-06-26 02:35:00,
2013-06-25 22:41:00,68.4,66.0,29.93,SE,138,2.0,3.0,92,0.00,,,0.19,0,Wunderground v.1.15,2013-06-26 02:41:00,
2013-06-25 22:47:00,68.4,66.3,29.92,West,275,1.0,6.0,93,0.00,,,0.19,0,Wunderground v.1.15,2013-06-26 02:47:00,
2013-06-25 22:49:00,68.3,66.2,29.92,WNW,291,1.0,6.0,93,0.00,,,0.19,0,Wunderground v.1.15,2013-06-26 02:49:00,
2013-06-25 22:55:00,68.2,65.8,29.92,West,275,1.0,6.0,92,0.00,,,0.19,0,Wunderground v.1.15,2013-06-26 02:55:00,
2013-06-25 23:00:00,68.1,66.0,29.92,SE,145,1.0,5.0,93,0.00,,,0.19,0,Wunderground v.1.15,2013-06-26 03:00:00,
2013-06-25 23:05:00,68.1,66.0,29.92,SSE,162,2.0,5.0,93,0.00,,,0.19,0,Wunderground v.1.15,2013-06-26 03:05:00,
2013-06-25 23:11:00,68.1,66.0,29.92,SSE,157,1.0,5.0,93,0.00,,,0.19,0,Wunderground v.1.15,2013-06-26 03:11:00,
2013-06-25 23:16:00,68.0,65.9,29.92,ENE,67,1.0,6.0,93,0.00,,,0.19,0,Wunderground v.1.15,2013-06-26 03:16:00,
2013-06-25 23:22:00,68.1,66.0,29.92,NNW,345,2.0,5.0,93,0.00,,,0.19,0,Wunderground v.1.15,2013-06-26 03:22:00,
2013-06-25 23:28:00,68.0,65.9,29.92,SW,236,1.0,5.0,93,0.00,,,0.19,0,Wunderground v.1.15,2013-06-26 03:28:00,
2013-06-25 23:34:00,67.9,65.8,29.92,WNW,293,1.0,5.0,93,0.00,,,0.19,0,Wunderground v.1.15,2013-06-26 03:34:00,
2013-06-25 23:39:00,67.8,66.0,29.93,WNW,291,2.0,5.0,94,0.00,,,0.19,0,Wunderground v.1.15,2013-06-26 03:39:00,
2013-06-25 23:45:00,67.7,65.9,29.94,West,276,2.0,5.0,94,0.00,,,0.19,0,Wunderground v.1.15,2013-06-26 03:45:00,
2013-06-25 23:51:00,67.7,65.9,29.94,ESE,105,2.0,3.0,94,0.00,,,0.19,0,Wunderground v.1.15,2013-06-26 03:51:00,
2013-06-25 23:56:00,67.7,65.9,29.93,WNW,292,2.0,5.0,94,0.00,,,0.19,0,Wunderground v.1.15,2013-06-26 03:56:00,